Wind_Speed
51 53 49 52 53 51 51 51 54 51 33 47 31 34 20 31 36 36 43 46 43 41 48 67 96 103 106 101 100 96 95 94 91 89 86 82 76 75 75 71 69 64 60 60
49 46 45 49 47 47 49 51 52 48 32 37 28 34 27 36 32 36 42 38 36 37 39 46 69 100 107 101 99 96 96 94 94 91 88 82 82 78 73 72 71 70 63 61
43 37 41 45 43 44 44 49 50 43 21 31 39 36 33 33 34 37 42 39 41 38 33 31 48 79 102 103 97 96 95 93 94 92 89 87 81 78 80 75 75 73 66 55
43 40 40 39 39 42 45 42 41 30 28 31 39 46 39 29 30 29 26 32 37 36 32 28 32 58 92 100 95 95 95 95 94 92 90 88 83 80 78 76 77 74 71 52
43 42 42 37 35 41 42 39 40 32 32 35 33 45 28 25 15 18 23 27 29 34 37 31 31 41 82 98 94 94 96 96 95 93 91 87 87 81 77 79 77 78 77 65
45 41 43 35 30 33 38 41 34 30 33 37 37 41 23 12 17 17 20 24 30 35 33 36 30 31 62 93 91 93 98 98 95 93 92 87 87 82 78 81 80 77 78 74
44 42 42 32 28 27 34 33 30 30 33 37 36 36 23 20 25 27 31 37 40 40 36 33 29 26 46 80 89 89 95 99 96 93 92 88 84 83 82 78 77 75 78 76
44 40 39 34 29 31 32 31 29 35 37 40 34 24 24 27 28 32 38 39 39 35 33 31 23 25 35 63 86 85 90 98 98 94 91 88 85 82 82 78 74 59 77 76
41 39 37 31 24 29 33 28 22 32 35 37 32 25 21 28 31 31 36 41 33 25 19 11 17 21 32 54 77 81 86 96 97 94 91 86 84 83 81 86 83 73 65 68
38 46 34 28 22 25 28 25 25 28 35 37 31 24 27 27 25 32 38 34 18 8 2 7 16 12 26 46 68 77 82 91 94 93 91 77 81 78 78 80 88 76 65 64
41 37 30 28 24 23 22 24 21 28 28 31 35 25 26 27 30 34 33 18 12 9 9 13 12 8 25 47 56 73 78 85 91 90 88 82 67 75 77 71 75 81 78 70
35 36 30 26 21 23 22 21 16 24 28 26 30 24 24 26 29 33 27 8 13 13 10 11 10 7 23 43 57 68 74 80 88 88 88 78 66 63 70 74 72 74 80 78
37 36 33 28 21 25 19 19 15 21 23 21 26 24 24 25 26 30 21 6 4 8 9 17 17 6 23 34 47 55 70 75 84 85 84 84 71 63 64 71 74 77 77 76
32 31 33 33 22 24 19 13 15 20 22 23 21 20 19 20 20 22 20 17 5 6 5 11 10 8 23 36 46 47 57 67 72 81 79 77 73 68 68 62 67 67 72 74
33 32 34 32 21 25 20 16 13 15 18 22 18 19 17 17 16 17 14 13 10 6 6 6 8 2 4 37 43 44 53 48 62 66 73 82 80 77 72 64 65 61 63 71
28 28 29 29 20 26 20 17 14 15 16 17 16 14 16 14 13 14 16 12 8 5 6 6 11 6 10 22 35 44 48 55 60 62 63 71 73 76 74 70 68 66 63 64
24 24 27 25 17 22 19 16 14 14 17 16 14 11 13 11 11 11 11 14 16 13 12 16 11 18 10 14 17 25 41 48 49 51 58 59 60 65 65 68 69 65 65 63
25 24 26 24 19 19 15 13 13 13 17 17 14 11 9 9 10 10 8 10 13 14 16 14 14 15 11 20 18 18 28 30 39 42 46 54 58 59 61 63 65 69 66 66
21 20 22 22 18 16 13 11 12 12 14 16 14 10 8 8 5 5 8 9 11 11 12 13 12 13 15 17 18 14 14 20 42 35 36 36 41 48 54 59 65 66 70 70
15 15 18 20 20 18 13 12 10 13 11 13 12 10 7 4 2 2 4 7 10 9 9 9 9 11 13 15 21 21 17 24 24 31 29 28 32 34 38 42 42 54 64 69
16 16 18 17 20 18 12 12 8 9 9 10 10 9 8 5 3 3 4 7 6 6 8 9 8 7 10 10 12 15 19 20 21 22 22 24 28 32 34 36 39 41 44 47
15 11 14 19 20 19 18 15 10 8 10 10 9 9 8 7 5 4 5 5 6 6 6 5 4 6 8 9 11 14 14 15 19 21 20 19 20 25 25 28 33 38 40 40
9 6 16 18 17 19 22 19 12 11 10 11 11 10 9 8 8 7 6 7 7 8 7 5 3 1 3 3 4 6 9 13 17 22 24 25 25 27 31 31 32 33 35 37
2 5 13 19 16 20 24 24 17 15 12 10 11 13 11 9 9 9 8 9 9 10 11 10 8 7 6 6 7 8 8 9 12 14 16 19 22 26 28 31 34 34 33 33
5 7 14 19 17 18 24 24 22 19 17 13 12 14 14 12 11 11 11 11 11 10 10 11 12 12 13 14 15 15 16 18 19 22 23 23 23 24 27 28 30 33 37 38
5 7 16 19 17 20 22 24 23 23 19 17 15 13 17 15 15 15 14 13 13 12 11 10 11 14 15 16 16 17 18 20 23 26 27 29 29 31 33 34 34 35 35 35
Wind_Direction
314 314 310 304 299 300 302 301 307 310 296 284 284 293 281 285 287 283 271 280 286 298 276 251 235 226 216 215 216 217 219 220 222 222 224 225 223 220 221 218 219 214 216 219
315 318 305 300 298 300 299 308 315 305 292 285 292 298 299 293 284 282 285 285 283 293 299 262 246 229 218 215 213 213 216 217 219 220 222 224 225 222 220 217 219 216 215 221
322 318 304 301 300 296 301 313 310 306 284 285 296 304 300 301 287 285 278 274 285 290 292 291 249 236 220 217 212 210 213 215 216 218 218 222 223 223 218 218 218 219 216 217
329 329 313 308 305 298 300 308 314 299 300 299 303 309 315 310 294 280 278 277 283 279 288 299 274 236 222 216 214 208 208 212 215 215 217 219 223 222 221 217 218 219 220 210
329 334 324 314 307 301 305 309 311 295 298 295 308 308 313 307 305 285 280 278 282 286 285 287 285 247 223 215 213 208 204 209 213 213 216 216 222 222 221 218 218 218 221 216
327 330 330 316 305 302 313 316 304 294 296 301 311 311 322 294 302 289 286 284 281 288 285 281 280 259 223 216 211 208 204 207 211 213 214 215 220 221 220 219 219 219 220 222
320 327 331 316 307 309 323 321 306 304 302 306 319 319 314 301 310 309 302 301 300 295 278 277 270 271 222 215 209 208 205 206 208 212 213 214 218 219 222 222 221 223 224 223
311 320 330 321 310 313 325 322 310 306 313 319 326 327 301 304 311 312 310 310 309 300 285 269 265 270 224 210 209 206 207 206 208 211 213 215 217 219 220 222 216 218 225 225
311 316 328 326 311 311 322 317 307 304 311 319 325 335 327 316 319 324 320 325 319 306 288 235 298 270 221 204 207 203 205 206 209 210 211 214 217 218 220 224 221 223 215 228
309 308 321 325 309 309 323 319 312 312 318 321 330 343 324 324 332 339 340 336 346 348 291 312 316 284 208 194 203 200 201 205 210 210 213 212 215 218 221 224 230 224 220 223
305 306 317 327 311 307 308 316 302 307 318 322 324 347 337 339 346 347 343 353 9 2 351 335 307 277 194 177 186 198 198 203 210 210 214 213 210 216 221 223 228 234 227 229
299 304 312 321 309 304 305 318 305 306 314 325 316 337 339 346 351 350 345 359 32 50 38 3 357 263 196 179 179 190 197 201 209 212 214 217 212 211 219 222 225 229 234 237
285 298 310 314 306 305 300 318 301 301 307 319 314 327 333 342 352 352 356 353 341 16 358 10 2 343 182 180 179 186 195 200 207 212 215 218 218 217 218 222 225 228 231 235
289 291 303 309 306 304 300 312 294 299 309 309 315 317 330 341 355 8 15 19 344 301 20 347 33 46 175 185 175 184 189 200 206 212 214 218 222 219 220 222 225 231 234 235
279 291 299 302 301 298 299 305 286 292 311 312 315 316 340 345 357 20 19 33 27 89 66 54 127 303 117 192 181 180 185 187 209 207 212 218 222 224 225 228 229 236 236 234
280 285 290 293 292 297 298 295 302 291 302 315 320 324 337 347 355 18 26 31 13 9 353 12 165 95 164 171 190 182 186 193 204 207 212 218 224 226 228 228 231 240 239 237
279 279 288 285 286 285 298 283 303 287 294 313 320 331 332 357 0 10 31 46 51 56 71 65 100 144 120 131 156 192 201 200 203 212 215 219 224 228 231 234 238 238 238 239
265 282 284 280 279 279 301 286 299 288 289 304 318 326 341 0 6 17 23 48 50 60 69 89 117 141 173 165 174 165 178 203 206 206 212 219 224 227 231 235 238 240 242 243
257 274 281 278 274 275 295 306 284 295 291 295 308 311 326 343 354 27 44 53 58 61 71 77 102 121 125 151 203 201 176 185 202 217 211 223 230 231 234 236 239 242 242 243
251 278 274 285 282 270 289 299 298 277 288 285 292 302 312 318 350 42 41 61 71 75 79 77 90 107 119 140 157 181 199 197 193 196 209 220 225 230 236 240 242 247 248 247
270 281 278 282 277 267 277 279 295 269 268 283 285 291 305 300 299 10 59 67 52 59 73 87 97 126 128 132 145 159 171 181 193 200 208 220 225 227 233 239 243 248 251 252
278 284 289 280 278 272 263 269 284 294 264 261 280 290 294 291 292 298 334 8 31 35 66 82 79 103 132 165 182 186 195 198 202 206 211 222 232 224 228 237 244 246 244 243
248 300 286 289 283 266 255 254 263 284 295 271 259 274 283 282 275 279 288 295 310 325 332 337 341 92 114 144 182 192 203 214 217 221 230 241 239 234 235 242 245 237 236 240
207 316 316 296 293 274 254 252 251 264 278 288 268 256 262 266 261 254 254 266 269 276 287 299 292 284 279 263 249 257 260 251 244 241 238 236 239 243 246 246 243 241 239 239
4 296 284 284 292 279 257 253 246 253 260 276 277 252 248 248 251 248 244 242 246 249 252 260 270 275 275 274 270 263 258 253 252 253 254 253 250 248 246 244 244 245 246 245
322 272 270 277 278 272 269 265 247 249 254 261 269 262 243 242 243 239 240 238 235 231 233 242 259 266 269 269 272 277 279 278 275 270 263 259 257 254 252 251 252 250 246 245
Height
5494 5489 5479 5469 5458 5452 5447 5441 5434 5432 5430 5412 5417 5412 5416 5413 5403 5395 5392 5389 5387 5383 5380 5378 5386 5400 5428 5449 5470 5489 5510 5529 5544 5562 5576 5585 5596 5606 5616 5629 5640 5646 5654 5663
5485 5481 5470 5459 5452 5446 5439 5431 5426 5417 5414 5404 5407 5404 5406 5400 5392 5387 5384 5380 5376 5371 5366 5361 5363 5378 5400 5425 5447 5469 5487 5506 5524 5542 5560 5572 5583 5594 5604 5614 5626 5633 5641 5652
5475 5471 5460 5450 5446 5437 5434 5424 5415 5408 5406 5402 5397 5395 5393 5388 5383 5377 5372 5368 5364 5360 5355 5349 5347 5357 5380 5403 5424 5445 5468 5489 5505 5524 5540 5555 5565 5576 5587 5597 5611 5622 5629 5641
5467 5459 5449 5443 5436 5429 5422 5419 5410 5405 5400 5395 5389 5381 5383 5377 5372 5367 5363 5360 5355 5351 5346 5340 5336 5339 5356 5387 5411 5428 5448 5468 5487 5505 5521 5538 5550 5564 5577 5589 5599 5609 5617 5628
5461 5451 5440 5432 5427 5420 5416 5411 5403 5399 5395 5390 5390 5378 5374 5369 5365 5362 5357 5352 5347 5342 5337 5333 5327 5325 5339 5363 5388 5410 5428 5446 5467 5483 5503 5523 5536 5551 5564 5576 5584 5596 5606 5614
5450 5443 5433 5425 5420 5415 5408 5400 5396 5392 5389 5384 5383 5372 5366 5362 5359 5355 5351 5345 5339 5332 5326 5322 5319 5315 5322 5344 5372 5394 5412 5429 5451 5469 5487 5508 5522 5537 5549 5562 5571 5581 5591 5599
5443 5437 5429 5419 5413 5409 5403 5394 5386 5385 5382 5379 5375 5365 5360 5357 5353 5348 5342 5335 5326 5319 5313 5311 5309 5306 5309 5329 5356 5381 5400 5418 5436 5456 5475 5495 5510 5524 5538 5549 5563 5570 5578 5588
5431 5430 5424 5414 5406 5401 5398 5392 5387 5377 5375 5368 5368 5362 5357 5353 5348 5341 5331 5322 5313 5305 5299 5300 5301 5299 5300 5315 5341 5366 5390 5409 5423 5443 5464 5483 5499 5511 5525 5535 5547 5554 5567 5574
5420 5420 5417 5408 5404 5397 5392 5388 5384 5376 5373 5365 5361 5358 5354 5348 5341 5334 5324 5311 5300 5292 5289 5294 5294 5290 5292 5305 5328 5355 5379 5400 5415 5432 5450 5469 5485 5499 5511 5521 5527 5538 5551 5560
5415 5407 5410 5405 5400 5393 5387 5384 5379 5375 5368 5360 5355 5354 5348 5343 5337 5328 5317 5305 5297 5293 5293 5293 5291 5287 5288 5300 5321 5347 5370 5391 5407 5425 5439 5455 5472 5487 5499 5508 5515 5527 5539 5549
5406 5403 5405 5399 5393 5390 5386 5381 5377 5371 5369 5362 5352 5352 5345 5339 5331 5323 5314 5306 5301 5298 5295 5292 5290 5288 5290 5298 5316 5341 5362 5382 5399 5416 5431 5447 5462 5476 5487 5499 5510 5517 5523 5533
5397 5393 5392 5392 5388 5384 5382 5377 5373 5369 5366 5362 5356 5351 5344 5337 5330 5322 5313 5308 5305 5300 5297 5294 5291 5290 5293 5301 5315 5335 5356 5375 5391 5408 5423 5437 5452 5463 5476 5486 5494 5501 5509 5516
5390 5386 5383 5385 5384 5379 5376 5373 5369 5366 5362 5362 5355 5350 5343 5337 5331 5324 5315 5310 5307 5304 5301 5298 5295 5293 5297 5308 5319 5335 5352 5370 5384 5400 5415 5428 5441 5454 5463 5471 5480 5489 5498 5506
5380 5379 5377 5376 5375 5371 5370 5369 5366 5362 5359 5357 5354 5348 5344 5338 5333 5327 5320 5313 5310 5308 5305 5302 5300 5301 5303 5310 5320 5332 5349 5367 5380 5394 5408 5421 5432 5442 5451 5459 5468 5479 5489 5498
5373 5370 5369 5368 5368 5365 5363 5363 5362 5360 5357 5354 5352 5346 5342 5338 5334 5329 5323 5319 5315 5311 5310 5308 5306 5305 5309 5315 5320 5334 5349 5365 5375 5388 5400 5410 5420 5433 5441 5451 5461 5470 5478 5485
5366 5362 5362 5361 5363 5359 5359 5358 5357 5356 5355 5352 5349 5345 5342 5339 5335 5331 5326 5322 5318 5316 5314 5313 5313 5312 5315 5321 5331 5338 5349 5360 5370 5383 5394 5405 5416 5426 5435 5443 5449 5458 5466 5473
5356 5356 5356 5353 5358 5356 5356 5355 5353 5353 5352 5351 5348 5345 5343 5340 5336 5333 5330 5326 5323 5320 5318 5317 5317 5318 5321 5328 5335 5344 5351 5360 5370 5380 5391 5401 5410 5417 5426 5434 5441 5449 5456 5463
5350 5351 5350 5348 5352 5353 5352 5350 5349 5350 5349 5348 5347 5345 5343 5341 5338 5336 5333 5330 5328 5325 5324 5323 5324 5326 5328 5333 5336 5345 5352 5360 5368 5377 5386 5394 5402 5409 5417 5425 5431 5437 5444 5451
5346 5346 5344 5344 5346 5349 5350 5347 5346 5346 5346 5346 5345 5345 5343 5342 5340 5339 5336 5334 5332 5331 5329 5329 5329 5330 5332 5336 5341 5346 5352 5359 5366 5374 5382 5389 5396 5402 5408 5413 5418 5422 5430 5439
5339 5339 5340 5340 5341 5343 5345 5344 5343 5343 5344 5343 5343 5343 5343 5342 5342 5340 5339 5337 5336 5336 5334 5333 5334 5334 5336 5339 5343 5348 5354 5358 5364 5371 5378 5384 5388 5394 5399 5403 5407 5411 5416 5422
5333 5334 5334 5335 5335 5339 5341 5341 5340 5341 5344 5340 5339 5340 5341 5341 5342 5341 5340 5339 5339 5339 5338 5338 5338 5338 5340 5342 5345 5348 5352 5357 5362 5368 5374 5378 5383 5387 5391 5395 5399 5402 5405 5409
5329 5329 5330 5331 5331 5333 5336 5337 5338 5338 5337 5337 5337 5337 5338 5339 5340 5340 5340 5340 5341 5342 5342 5342 5342 5342 5344 5345 5348 5351 5354 5357 5361 5365 5369 5374 5377 5380 5383 5387 5390 5393 5397 5400
5325 5326 5327 5329 5329 5329 5330 5332 5334 5334 5334 5334 5334 5335 5335 5336 5338 5338 5339 5339 5340 5341 5342 5343 5344 5345 5346 5347 5349 5350 5353 5356 5359 5362 5364 5366 5368 5372 5375 5379 5382 5384 5387 5391
5321 5321 5323 5323 5325 5323 5324 5326 5330 5331 5331 5331 5331 5331 5332 5334 5335 5336 5337 5338 5339 5340 5340 5341 5343 5344 5344 5346 5347 5349 5350 5352 5355 5356 5358 5361 5363 5365 5367 5369 5372 5375 5378 5382
5318 5318 5317 5317 5319 5318 5318 5320 5324 5326 5327 5328 5328 5328 5329 5330 5332 5333 5334 5335 5337 5338 5339 5340 5340 5341 5342 5343 5344 5345 5346 5348 5350 5352 5353 5355 5356 5358 5360 5362 5364 5366 5368 5371
5314 5314 5314 5313 5315 5314 5314 5315 5319 5321 5323 5324 5324 5324 5325 5326 5328 5329 5331 5332 5334 5335 5336 5336 5337 5339 5339 5340 5341 5341 5342 5343 5344 5345 5347 5348 5349 5350 5351 5353 5355 5356 5358 5360